Location: *
(42.3442°N, 9.2072°E)
Time: 03:00:11
(UTC+00:00)

Meteor 2-10 Rocket - Pass Details

Date: 09 April 2020
Orbit: 734 x 884 km, 81.2° (Epoch: 29 May)

Event Time Altitude Azimuth Distance (km) Brightness Sun altitude
Exits shadow 20:33:48 52° 50° (NE) 978 3.9 -26.4°
Drops below altitude 10° 20:38:10 10° 17° (NNE) 2,406 6.3 -27.0°
Sets 20:40:38 0° 14° (NNE) 3,366 7.2 -27.3°
